COSMOS 1275 DEB, 14406

Orbit data source: Space-Track

COSMOS 1275 DEB, 14406 is space debris in LEO originally from a launch on Thu, 04 Jun 1981 UTC launched from the Plesetsk Missile And Space Complex (PKMTR). Debris objects in space refer to the collection of defunct objects orbiting the Earth. Examples of debris include non-operational satellites, rocket bodies, and fragments generated from explosions, collisions, or faulty payload assembly.

Loading next visibility...
Identifier
14406, 1981-053JB
Orbit
LEO
Country
Flag of CISCIS
Related business
Manufacturer
Unknown
Mission
Spacecraft
Bus & Motor
Unknown
Mass
Unknown
Launch date (UTC)
1981-06-04 (44 years ago)
Launch vehicle
Unknown
Launch site
Plesetsk Missile And Space Complex (PKMTR)
Object type
Payload
Rocket body
Debris
Shape & HBR
Unknown shape, 0.1 m
Radar Cross Section
Small (<0.1 m²)

Expand to show TLE details & history
Last TLE update: 21 hours ago

TLE from 21 hours ago
0 COSMOS 1275 DEB
1 14406U 81053JB  25310.70511023  .00004734  00000-0  21935-2 0  9992
2 14406  82.8402 205.4334 0017475 146.4771 233.8529 14.20525788190213
Epoch: 2025-11-06T16:55Z
TLE epoch observation values (Epoch: 2025-11-06T16:55:21.523Z)
Latitude
20.0073°
Longitude
-91.95819°
Altitude
833.562 km
Speed
7.434 km/s
True Right ascension
13h 52m 09s
True Declination
19° 53' 53"
Sunlit
Object was in daylight at epoch
Visualization orbit readout
Latitude
Unknown
Longitude
Unknown
Altitude
Unknown
Speed
Unknown
Apparent Right ascension
Unknown
Apparent Declination
Unknown
Sunlit
N/A
Visualization observer readout
Local Sidereal Time
09:58:33
Azimuth
Unknown
Elevation
Unknown
Doppler factor
Unknown
Orbital elements
Apogee altitude
833.245 km
Perigee altitude
808.085 km
Semi-major axis
7,198.802 km
Eccentricity
0.00175
Inclination
82.8402°
RAAN
205.4334°
Arg. of periapsis
146.4771°
True anomaly
233.69141°
Mean anomaly
233.8529°
Eccentric anomaly
233.77213°
Mean motion
3.55347 °/min
Orbital period
101.31 mins
BSTAR
0.0021935
Loading maneuver chart data...
Computing Atmospheric mass density...
Loading historical data...
Loading historical data...
Loading historical data...
Loading historical data...
Loading historical data...
Loading historical data...
Loading historical data...

Documentation

Showing up to 5 results
|